| time (UTC) | temp F | wind direction | speed MPH | gust MPH | rain 1hr in | rain 24hr in | rain mn in | humidity % | barometer mb |
| 20260503234315 | 71 | 240 | 1.0 | 2.0 | 0.00 | 0.00 | 0.00 | 28 | 1002.3 |
| 20260503233317 | 71 | 307 | 2.0 | 3.0 | 0.00 | 0.00 | 0.00 | 27 | 1002.3 |
| 20260503232315 | 71 | 343 | 3.0 | 4.0 | 0.00 | 0.00 | 0.00 | 27 | 1002.5 |
| 20260503231317 | 71 | 331 | 2.0 | 4.0 | 0.00 | 0.00 | 0.00 | 28 | 1002.3 |
| 20260503230316 | 71 | 271 | 2.0 | 7.0 | 0.00 | 0.00 | 0.00 | 28 | 1002.3 |
| 20260503225318 | 72 | 17 | 1.0 | 6.0 | 0.00 | 0.00 | 0.00 | 29 | 1002.1 |
| 20260503224316 | 73 | 294 | 1.0 | 3.0 | 0.00 | 0.00 | 0.00 | 28 | 1002.1 |
| 20260503223318 | 72 | 23 | 0.0 | 1.0 | 0.00 | 0.00 | 0.00 | 29 | 1002.1 |
| 20260503222316 | 72 | 283 | 1.0 | 6.0 | 0.00 | 0.00 | 0.00 | 26 | 1002.0 |
| 20260503221315 | 72 | 300 | 2.0 | 4.0 | 0.00 | 0.00 | 0.00 | 25 | 1002.3 |
| 20260503220317 | 74 | 316 | 1.0 | 4.0 | 0.00 | 0.00 | 0.00 | 26 | 1002.3 |
| 20260503215315 | 73 | 300 | 1.0 | 3.0 | 0.00 | 0.00 | 0.00 | 27 | 1002.1 |
| 20260503214317 | 73 | 324 | 2.0 | 6.0 | 0.00 | 0.00 | 0.00 | 27 | 1002.0 |
| 20260503213316 | 73 | 350 | 0.0 | 0.0 | 0.00 | 0.00 | 0.00 | 25 | 1002.3 |
| 20260503212317 | 73 | 277 | 2.0 | 4.0 | 0.00 | 0.00 | 0.00 | 27 | 1002.0 |
| 20260503211316 | 73 | 287 | 4.0 | 10.0 | 0.00 | 0.00 | 0.00 | 26 | 1002.7 |
| 20260503210318 | 74 | 344 | 4.0 | 8.0 | 0.00 | 0.00 | 0.00 | 25 | 1002.7 |
| 20260503205316 | 74 | 305 | 4.0 | 7.0 | 0.00 | 0.00 | 0.00 | 26 | 1002.7 |
| 20260503204318 | 74 | 313 | 3.0 | 7.0 | 0.00 | 0.00 | 0.00 | 25 | 1002.7 |
| 20260503203316 | 74 | 278 | 3.0 | 8.0 | 0.00 | 0.00 | 0.00 | 25 | 1002.7 |
| 20260503202315 | 75 | 15 | 1.0 | 2.0 | 0.00 | 0.00 | 0.00 | 27 | 1002.7 |
| 20260503201317 | 74 | 161 | 1.0 | 4.0 | 0.00 | 0.00 | 0.00 | 27 | 1002.7 |
| 20260503200315 | 75 | 8 | 3.0 | 6.0 | 0.00 | 0.00 | 0.00 | 26 | 1003.0 |
| 20260503195317 | 75 | 266 | 3.0 | 6.0 | 0.00 | 0.00 | 0.00 | 28 | 1003.0 |
| 20260503194315 | 75 | 355 | 3.0 | 6.0 | 0.00 | 0.00 | 0.00 | 28 | 1003.0 |
| 20260503193318 | 76 | 333 | 3.0 | 7.0 | 0.00 | 0.00 | 0.00 | 28 | 1003.0 |
| 20260503192316 | 75 | 309 | 2.0 | 4.0 | 0.00 | 0.00 | 0.00 | 29 | 1003.0 |
| 20260503191318 | 75 | 270 | 2.0 | 4.0 | 0.00 | 0.00 | 0.00 | 29 | 1003.0 |
| 20260503190316 | 73 | 309 | 3.0 | 8.0 | 0.00 | 0.00 | 0.00 | 28 | 1003.2 |
| 20260503185318 | 76 | 38 | 2.0 | 4.0 | 0.00 | 0.00 | 0.00 | 27 | 1003.2 |
| 20260503184316 | 74 | 229 | 2.0 | 3.0 | 0.00 | 0.00 | 0.00 | 32 | 1003.2 |
| 20260503183314 | 74 | 360 | 2.0 | 4.0 | 0.00 | 0.00 | 0.00 | 30 | 1003.4 |
| 20260503182317 | 74 | 351 | 2.0 | 4.0 | 0.00 | 0.00 | 0.00 | 30 | 1003.4 |
| 20260503181315 | 75 | 315 | 2.0 | 4.0 | 0.00 | 0.00 | 0.00 | 27 | 1003.4 |
| 20260503180317 | 77 | 319 | 4.0 | 10.0 | 0.00 | 0.00 | 0.00 | 28 | 1003.4 |
| 20260503175315 | 78 | 354 | 2.0 | 3.0 | 0.00 | 0.00 | 0.00 | 28 | 1003.4 |
| 20260503174317 | 77 | 2 | 0.0 | 2.0 | 0.00 | 0.00 | 0.00 | 27 | 1003.5 |
| 20260503173316 | 77 | 332 | 4.0 | 6.0 | 0.00 | 0.00 | 0.00 | 27 | 1003.7 |
| 20260503172318 | 77 | 275 | 1.0 | 3.0 | 0.00 | 0.00 | 0.00 | 26 | 1003.5 |
| 20260503171316 | 79 | 257 | 1.0 | 2.0 | 0.00 | 0.00 | 0.00 | 26 | 1003.7 |
| 20260503170318 | 79 | 218 | 1.0 | 4.0 | 0.00 | 0.00 | 0.00 | 28 | 1003.7 |
| 20260503150316 | 75 | 277 | 2.0 | 3.0 | 0.00 | 0.00 | 0.00 | 27 | 1004.2 |
| 20260503131316 | 64 | 221 | 3.0 | 9.0 | 0.00 | 0.00 | 0.00 | 37 | 1004.7 |
| 20260503130315 | 62 | 208 | 4.0 | 10.0 | 0.00 | 0.00 | 0.00 | 37 | 1004.7 |
| 20260503110317 | 55 | 72 | 2.0 | 4.0 | 0.00 | 0.00 | 0.00 | 44 | 1004.2 |
| 20260503090316 | 56 | 224 | 5.0 | 13.0 | 0.00 | 0.00 | 0.00 | 41 | 1006.1 |
| 20260503081318 | 55 | 199 | 3.0 | 4.0 | 0.00 | 0.00 | 0.00 | 39 | 1007.0 |
| 20260503080317 | 55 | 216 | 1.0 | 3.0 | 0.00 | 0.00 | 0.00 | 38 | 1006.8 |
| 20260503072318 | 56 | 195 | 2.0 | 6.0 | 0.00 | 0.00 | 0.00 | 38 | 1007.2 |
| 20260503071316 | 56 | 250 | 3.0 | 6.0 | 0.00 | 0.00 | 0.00 | 37 | 1007.3 |
| 20260503070318 | 56 | 175 | 1.0 | 2.0 | 0.00 | 0.00 | 0.00 | 38 | 1007.5 |
| 20260503060315 | 57 | 247 | 2.0 | 6.0 | 0.00 | 0.00 | 0.00 | 37 | 1008.0 |
| 20260503054316 | 57 | 258 | 2.0 | 7.0 | 0.00 | 0.00 | 0.00 | 37 | 1008.5 |
| 20260503053318 | 57 | 242 | 1.0 | 2.0 | 0.00 | 0.00 | 0.00 | 36 | 1008.4 |
| 20260503052316 | 57 | 206 | 1.0 | 3.0 | 0.00 | 0.00 | 0.00 | 36 | 1008.7 |
| 20260503051318 | 57 | 219 | 1.0 | 3.0 | 0.00 | 0.00 | 0.00 | 36 | 1008.9 |
| 20260503050316 | 58 | 231 | 3.0 | 7.0 | 0.00 | 0.00 | 0.00 | 36 | 1008.7 |
| 20260503045318 | 58 | 240 | 1.0 | 3.0 | 0.00 | 0.00 | 0.00 | 35 | 1008.7 |
| 20260503044316 | 58 | 213 | 2.0 | 4.0 | 0.00 | 0.00 | 0.00 | 35 | 1008.7 |
| 20260503043319 | 58 | 240 | 2.0 | 4.0 | 0.00 | 0.00 | 0.00 | 35 | 1008.9 |
| 20260503042316 | 58 | 214 | 2.0 | 4.0 | 0.00 | 0.00 | 0.00 | 35 | 1008.9 |
| 20260503041315 | 59 | 189 | 0.0 | 0.0 | 0.00 | 0.00 | 0.00 | 35 | 1009.1 |
| 20260503040317 | 59 | 248 | 1.0 | 2.0 | 0.00 | 0.00 | 0.00 | 34 | 1009.1 |
| 20260503035315 | 59 | 270 | 2.0 | 4.0 | 0.00 | 0.00 | 0.00 | 34 | 1009.2 |
| 20260503034317 | 59 | 219 | 1.0 | 4.0 | 0.00 | 0.00 | 0.00 | 33 | 1009.2 |
| 20260503033315 | 59 | 203 | 2.0 | 7.0 | 0.00 | 0.00 | 0.00 | 34 | 1009.4 |
| 20260503032317 | 60 | 185 | 1.0 | 4.0 | 0.00 | 0.00 | 0.00 | 34 | 1009.6 |
| 20260503031315 | 60 | 218 | 1.0 | 3.0 | 0.00 | 0.00 | 0.00 | 33 | 1009.6 |
| 20260503030317 | 60 | 224 | 0.0 | 1.0 | 0.00 | 0.00 | 0.00 | 32 | 1009.6 |
| 20260503025315 | 60 | 256 | 1.0 | 2.0 | 0.00 | 0.00 | 0.00 | 32 | 1009.6 |
| 20260503024317 | 60 | 203 | 1.0 | 6.0 | 0.00 | 0.00 | 0.00 | 34 | 1009.7 |
| 20260503023315 | 60 | 202 | 2.0 | 4.0 | 0.00 | 0.00 | 0.00 | 33 | 1009.9 |
| 20260503022317 | 60 | 270 | 0.0 | 0.0 | 0.00 | 0.00 | 0.00 | 33 | 1009.9 |
| 20260503021315 | 60 | 312 | 1.0 | 2.0 | 0.00 | 0.00 | 0.00 | 33 | 1010.1 |
| 20260503020317 | 60 | 233 | 1.0 | 3.0 | 0.00 | 0.00 | 0.00 | 34 | 1009.9 |
| 20260503015316 | 60 | 212 | 0.0 | 1.0 | 0.00 | 0.00 | 0.00 | 33 | 1010.1 |
| 20260503014318 | 60 | 243 | 0.0 | 1.0 | 0.00 | 0.00 | 0.00 | 33 | 1009.9 |
| 20260503013316 | 60 | 295 | 0.0 | 0.0 | 0.00 | 0.00 | 0.00 | 32 | 1010.1 |
| 20260503012318 | 61 | 291 | 0.0 | 0.0 | 0.00 | 0.00 | 0.00 | 32 | 1010.1 |
| 20260503011316 | 61 | 288 | 0.0 | 1.0 | 0.00 | 0.00 | 0.00 | 31 | 1009.9 |
| 20260503010318 | 61 | 199 | 1.0 | 3.0 | 0.00 | 0.00 | 0.00 | 31 | 1009.9 |
| 20260503005316 | 62 | 215 | 0.0 | 1.0 | 0.00 | 0.00 | 0.00 | 30 | 1010.1 |
| 20260503004318 | 62 | 193 | 0.0 | 1.0 | 0.00 | 0.00 | 0.00 | 31 | 1010.3 |
| 20260503003316 | 62 | 209 | 1.0 | 4.0 | 0.00 | 0.00 | 0.00 | 31 | 1010.3 |
| 20260503002319 | 62 | 286 | 0.0 | 0.0 | 0.00 | 0.00 | 0.00 | 30 | 1010.3 |
| 20260503001316 | 63 | 234 | 1.0 | 1.0 | 0.00 | 0.00 | 0.00 | 30 | 1010.4 |
| 20260503000315 | 63 | 202 | 0.0 | 2.0 | 0.00 | 0.00 | 0.00 | 29 | 1010.6 |
| 20260502235316 | 63 | 317 | 0.0 | 1.0 | 0.00 | 0.00 | 0.00 | 29 | 1010.6 |